Flag for France Weather past 2 weeks in Saint-Denis, France

Now
68 °F

Sunny.


Feels Like: 68 °F
Forecast: 54 / 68 °F
Wind: 3 mph from North

Location: Paris Le Bourget Airport

Current Time: May 27, 2015 at 3:04:30 PM

Latest Report: May 27, 2015 at 2:30 PM


Visibility: 10 mi

Pressure: 30.24 "Hg

Humidity: 40%

Dew point: 43 °F

Location of Saint-DenisLocation

Historic Weather in Saint-Denis — Graph

°F

Saint-Denis temperature yesterday

Maximum temperature yesterday: 66 °F (at 7:30 PM)
Minimum temperature yesterday: 54 °F (at 1:30 AM)
Average temperature yesterday: 59 °F

Past Weeks' High & Low Weather Summary

 TemperatureHumidityPressure
High72 °F (May 23, 5:00 PM)94% (May 14, 11:30 PM)30.39 "Hg (May 14, 11:30 PM)
Low43 °F (May 20, 4:00 AM)37% (May 17, 4:30 PM)29.74 "Hg (May 18, 7:30 PM)
Average57 °F68%30.12 "Hg
* Reported May 12 2:00 PM — May 27 2:00 PM, Saint-Denis, Weather by CustomWeather, © 2015

Note: Actual official high and low records may vary slightly from our data, if they occured in-between our weather recording intervals... More about our weather records

Advertising

Saint-Denis weather history for previous 24 hours

 ConditionsComfort  
Time TempWeatherWind HumidityBarometerVisibility
2:00 PM
Wed, May 27
66 °FPassing clouds.5 mph46%30.24 "HgN/A
1:30 PM64 °FSunny.5 mph46%30.27 "Hg10 mi
1:00 PM66 °FBroken clouds.3 mph49%30.27 "HgN/A
12:30 PM64 °FPartly sunny.2 mph49%30.27 "HgN/A
12:00 PM66 °FBroken clouds.3 mph46%30.27 "HgN/A
11:30 AM64 °FPartly sunny.3 mph49%30.27 "HgN/A
11:00 AM64 °FPartly sunny.2 mph52%30.30 "HgN/A
10:30 AM63 °FPassing clouds.2 mph59%30.30 "HgN/A
10:00 AM61 °FPassing clouds.2 mph68%30.30 "HgN/A
9:30 AM57 °FSunny.2 mph72%30.30 "Hg10 mi
9:00 AM57 °FSunny.2 mph72%30.30 "Hg10 mi
8:30 AM55 °FSunny.2 mph77%30.30 "Hg10 mi
8:00 AM52 °FSunny.No wind88%30.30 "Hg10 mi
7:30 AM50 °FClear.No wind94%30.27 "Hg6 mi
7:00 AM48 °FClear.No wind94%30.27 "Hg5 mi
6:30 AM48 °FClear.3 mph94%30.30 "Hg6 mi
5:30 AM48 °FClear.No wind94%30.27 "Hg10 mi
4:30 AM50 °FClear.2 mph88%30.27 "Hg10 mi
4:00 AM50 °FClear.2 mph82%30.27 "Hg10 mi
3:30 AM52 °FClear.3 mph82%30.27 "Hg10 mi
3:00 AM54 °FPassing clouds.5 mph77%30.30 "HgN/A
2:30 AM54 °FPassing clouds.3 mph77%30.30 "HgN/A
2:00 AM54 °FPassing clouds.3 mph77%30.30 "HgN/A
1:30 AM54 °FPassing clouds.3 mph77%30.30 "HgN/A
1:00 AM54 °FPassing clouds.3 mph77%30.27 "HgN/A
12:30 AM54 °FClear.6 mph77%30.27 "Hg10 mi
12:00 AM55 °FPassing clouds.3 mph72%30.27 "HgN/A
11:30 PM
Tue, May 26
57 °FPassing clouds.6 mph67%30.27 "HgN/A
11:00 PM57 °FPassing clouds.7 mph67%30.27 "HgN/A
10:30 PM59 °FScattered clouds.10 mph63%30.27 "HgN/A
10:00 PM61 °FPartly sunny.9 mph59%30.24 "HgN/A
9:30 PM61 °FMostly cloudy.9 mph59%30.24 "HgN/A
9:00 PM63 °FMostly cloudy.12 mph56%30.24 "HgN/A
8:30 PM64 °FMostly cloudy.5 mph49%30.21 "HgN/A
8:00 PM64 °FBroken clouds.2 mph49%30.21 "HgN/A
7:30 PM66 °FSunny.2 mph46%30.21 "Hg10 mi
7:00 PM64 °FOvercast.5 mph49%30.21 "HgN/A
6:30 PM64 °FPassing clouds.5 mph49%30.21 "HgN/A
6:00 PM64 °FPartly sunny.6 mph49%30.21 "HgN/A
5:30 PM64 °FBroken clouds.6 mph49%30.21 "HgN/A
5:00 PM64 °FPassing clouds.5 mph49%30.21 "HgN/A
4:30 PM64 °FCloudy.6 mph49%30.18 "HgN/A
4:00 PM63 °FScattered clouds.3 mph52%30.18 "HgN/A
3:30 PM64 °FMostly cloudy.5 mph49%30.21 "HgN/A
3:00 PM64 °FBroken clouds.6 mph46%30.21 "HgN/A
Weather by CustomWeather, © 2015

See weather overviewHow to use our weather pages